Location: Houston
(29.7630°N, 95.3630°W)
Time: 06:15:03
(UTC-05:00)

Daily predictions for brighter satellites

Satellite Brightness Start Highest point End
(mag) Time Altitude Azimuth Time Altitude Azimuth Time Altitude Azimuth
FENGYUN 3A 4.2 19:55:04 10° SE 19:59:58 36° ENE 20:04:52 10° N
Cosmos 2278 Rocket 2.2 19:57:34 10° SSW 20:03:14 86° ESE 20:08:57 10° NNE
Cosmos 1544 4.1 20:01:37 10° SE 20:04:34 24° E 20:07:33 10° NE
SJ-6B 3.0 20:01:04 10° SSE 20:04:38 45° ENE 20:08:13 10° N
Delta 128 3.7 20:06:24 10° WSW 20:10:59 63° S 20:15:07 12° E
ATLAS 5 CENTAUR R/B 2.4 20:10:32 10° S 20:14:31 30° ESE 20:18:41 10° NE
ISS -3.3 20:11:59 10° SSW 20:15:01 39° SE 20:18:06 10° ENE
SWIFT 4.5 20:13:46 10° SW 20:16:37 17° S 20:19:27 10° SSE
Cosmos 1934 Rocket 4.0 20:11:57 10° S 20:18:07 89° E 20:24:13 10° N
H-II Stage 2 0.7 20:16:44 10° WSW 20:18:56 63° S 20:20:28 17° E
Cosmos 2297 3.9 20:13:45 10° S 20:19:10 48° ESE 20:24:40 10° NNE
H-2A R/B 3.5 20:16:30 10° SE 20:19:58 32° ENE 20:23:29 10° N
Cosmos 1867 3.6 20:15:59 10° SSW 20:21:19 62° ESE 20:26:42 10° NE
FengYun 1-2 T 4.3 20:17:03 10° SSE 20:22:28 56° ENE 20:27:56 10° N
USA 215 3.6 20:16:38 10° ENE 20:22:45 42° SE 20:28:49 10° SSW
Okean 3 Rocket 4.2 20:19:10 10° NNE 20:23:11 34° E 20:27:11 10° SE
Aurora 2 Rocket 4.0 20:16:21 10° WSW 20:23:49 46° S 20:28:04 16° ESE
Tiangong 1 2.3 20:21:50 10° NW 20:24:23 26° NNE 20:25:52 17° ENE
Spot 2 Rocket 4.0 20:20:37 10° SE 20:25:21 40° ENE 20:30:06 10° N
Cosmos 1758 3.5 20:25:36 10° SSE 20:29:23 47° E 20:33:13 10° NNE
FREGAT/IRIS 3.6 20:27:55 10° S 20:30:53 50° W 20:33:52 10° NNW
Lacrosse 5 4.3 20:30:36 10° W 20:34:30 22° NW 20:38:25 10° N
Helios 1B rocket 3.0 20:32:24 10° NNE 20:36:10 34° E 20:39:54 10° SSE
Cosmos 1076 Rocket 4.3 20:32:42 10° NNE 20:36:24 29° E 20:38:07 21° ESE
Cosmos 1953 2.4 20:33:20 10° S 20:37:18 55° E 20:41:17 10° NNE
Cosmos 2082 Rocket 3.3 20:35:02 10° N 20:39:31 23° ENE 20:41:10 21° E
Meteor 1-24 Rocket 3.9 20:34:00 10° NNW 20:39:34 76° W 20:45:19 10° S
GP-B 3.8 20:40:05 19° SE 20:42:33 32° E 20:46:29 10° NNE
Envisat 4.2 20:42:59 21° E 20:43:34 21° ENE 20:47:19 10° NNE
Helios 1A 3.9 20:43:23 26° E 20:44:11 28° ENE 20:47:45 10° NNE
Delta 2 Rocket 3.5 20:41:05 10° WNW 20:45:55 76° NNE 20:47:57 31° E
Cosmos 1271 Rocket 3.5 20:45:01 27° ESE 20:46:03 31° E 20:49:37 10° NNE
Resurs 01 Rocket 1.5 20:44:23 10° SSE 20:48:46 80° ENE 20:53:11 10° N
Cosmos 1125 Rocket 3.6 20:46:45 10° SSW 20:51:55 77° WNW 20:57:08 10° NNE
Cosmos 1766 Rocket 4.3 20:48:12 10° NNE 20:52:14 32° E 20:52:36 32° E
Cosmos-2242 3.1 20:52:21 10° SSE 20:56:25 47° E 21:00:30 10° NNE
Cosmos 1048 Rocket 4.4 20:56:49 10° N 21:01:37 40° ENE 21:02:27 37° E
Geosat 4.4 20:57:52 10° NNE 21:02:50 63° WNW 21:07:46 10° SW
Cosmos 2100 Rocket 4.0 20:57:48 10° SSE 21:03:54 57° E 21:10:07 10° NNE
SeaSat 1 2.8 21:00:28 10° SSE 21:05:17 65° WSW 21:10:11 10° NNW
SAR-Lupe-4 3.7 21:05:55 54° NE 21:05:55 54° NE 21:09:06 10° N
Delta 168 3.2 21:04:14 10° WSW 21:07:33 38° S 21:07:33 38° S
Cosmos 1674 3.6 21:04:24 10° N 21:06:52 33° NE 21:06:52 33° NE
CZ-2D R/B 3.7 21:13:15 24° S 21:15:23 60° W 21:19:13 10° NNW
RESURS DK-1 4.2 21:14:46 10° NW 21:18:23 30° WSW 21:21:44 11° SSW
Meteor 1-29 3.5 21:19:08 10° N 21:22:08 56° NW 21:22:08 56° NW
GPS 2-05 Rocket1 4.2 21:21:02 10° WNW 21:24:10 35° NNW 21:24:10 35° NNW
Cosmos 1802 Rocket 3.8 21:19:09 10° S 21:25:12 67° E 21:31:18 10° NNE
COSMOS 2487 4.2 21:25:34 10° N 21:27:14 25° N 21:27:14 25° N
Meteor 1-21 Rocket 4.4 21:24:13 10° N 21:30:03 77° W 21:33:49 24° S
Cosmos 1818 3.4 21:29:23 10° NNW 21:34:51 87° WSW 21:35:22 74° SSE
Cosmos 1470 3.7 21:35:45 40° WSW 21:36:36 48° W 21:40:27 10° N
Cosmos 2061 Rocket 4.0 21:32:25 10° S 21:38:47 84° W 21:45:14 10° N
OAO 2 Rocket 3.6 21:34:51 10° WSW 21:39:18 62° SSW 21:39:18 62° SSW
Cosmos 1269 Rocket 4.0 21:35:36 10° NNW 21:40:53 77° WSW 21:41:19 71° SSW
Cosmos 1408 Rocket 4.2 21:40:39 10° NNW 21:44:55 54° W 21:44:55 54° W
Cosmos 1833 Rocket 2.6 21:42:07 10° NNW 21:47:24 80° N 21:47:24 80° N
Timation 2 Rocket 3.8 21:44:31 10° NNW 21:50:27 78° NNE 21:50:27 78° NNE
ISS -0.7 21:49:45 10° WNW 21:51:08 14° NW 21:51:08 14° NW
ATLAS 5 CENTAUR R/B 4.1 21:55:31 10° WSW 21:59:08 22° NW 22:02:58 10° N
USA 215 4.3 21:59:34 10° NNE 22:05:38 43° NW 22:11:41 10° WSW
Cosmos 2082 Rocket 3.5 22:18:28 10° NW 22:23:04 35° W 22:23:04 35° W
